{"data":{"norad_id":62952,"intl_designator":"2025-029E","name":"STARLINK-32865","alt_names":[],"object_type":"PAYLOAD","status":"ACTIVE","operator":null,"country":"US","launch_date":"2025-02-11","launch_site_code":"AFWTR","launch_vehicle":null,"mission":null,"orbit_class":"UNKNOWN","rcs_meters":null,"size_class":null,"mass_kg":null,"dimensions":null,"purposes":["comms"],"wikipedia_slug":null,"has_3d_model":false,"image_url":null,"decayed_at":null,"tle_current":{"epoch":"2026-05-24T23:47:15.196704Z","epoch_age_seconds":82796,"freshness":"FRESH","line1":"1 62952U 25029E   26144.99114811  .00022642  00000+0  73887-3 0  9994","line2":"2 62952  53.1594 237.7625 0001469  92.7222 267.3948 15.31713081 73019","mean_motion":15.31713081,"eccentricity":0.0001469,"inclination_deg":53.1594,"raan_deg":237.7625,"arg_perigee_deg":92.7222,"mean_anomaly_deg":267.3948,"bstar":0.00073887,"rev_number":7301,"period_min":94.012385078012,"perigee_km":469.69490742038,"apogee_km":471.70709602529,"semimajor_km":6848.8380017228,"source":"CELESTRAK","updated_at":"2026-05-25T13:38:19.824790Z"}}}